User: anonymous   Login
Location: Lower Kingswood
(51.2667°N, 0.2167°W)
Time: 14:32:56
(UTC+00:00)
Language:

COSMOS 2406 - Orbit

View from above orbital plane
View from above orbital plane
View from above satellite
View from above satellite

Ground track
Ground track

The orbit data is extracted from the following two-line orbital elements,

1 28352U 04021A   24063.35250444  .00000282  00000-0  17982-3 0  9991
2 28352  71.0071  45.9210 0015385 333.7992  26.2349 14.11909560 16725
Epoch (UTC): 03 March 2024 08:27:36
Eccentricity: 0.0015385
inclination: 71.0071°
perigee height: 842 km
apogee height: 864 km
right ascension of ascending node: 45.9210°
argument of perigee: 333.7992°
revolutions per day: 14.11909560
mean anomaly at epoch: 26.2349°
orbit number at epoch: 1672

The dashed part of the orbit path shows where the satellite is in the earth's shadow,  

DLR